Weather in Kirovaul

Russia / Republic of Dagestan     43°14′05″N   46°50′31″E
temp.,
°C
wind,
m/s
gust,
m/s
humid.,
%
clouds,
%
prec.,
mm/h
press.,
hPa
HPBL,
m
25 january, mon
mon2500:00+1se017269 0.0 102022
03:000wnw117379 0.0 101922
06:000w3378100 0.0 102042
09:00+3s016998 0.0 102057
12:00+6e3554100 0.0 1020359
15:00+8ese4552100 0.0 1019467
18:00+4ese468051 0.0 1020137
21:00+2ese118436 0.0 101922
26 january, tue
tue2600:00+1se11780 0.0 101822
03:00+1nne00780 0.0 101722
06:000w227821 0.0 101721
09:00+3se016360 0.0 101929
12:00+7n1157100 0.0 1019291
15:00+8nw2349100 0.0 1019512
18:00+4se11650 0.0 102122
21:00+3se23780 0.0 102127
27 january, wed
wed2700:00+3ese338314 0.0 102144
03:00+3ese34797 0.0 102066
06:00+2ese47830 0.0 1019131
09:00+5ese59800 0.0 1018334
12:00+8e576585 0.0 1016471
15:00+10ese455489 0.0 1013456
18:00+6ese587736 0.0 1013210
21:00+4ese248968 0.0 101188
28 january, thu
thu2800:00+4w2285100 0.0 101022
03:00+3wnw118399 0.0 100822
06:00+3nw1283100 0.0 100722
09:00+5n0170100 0.0 100636
12:00+9nw345230 0.0 1005383
15:00+11nnw224617 0.0 1003428
18:00+7wnw22652 0.0 100422
21:00+6w337038 0.0 100440
29 january, fri
fri2900:00+6wnw61179100 0.0 1004319
03:00+6w81577100 0.2 1006535
06:00+4w8148161 0.0 1007606
09:00+6wnw7127351 0.0 1008694
12:00+10wnw575724 0.0 1008719
15:00+10wnw235637 0.0 1007620
18:00+7n237190 0.0 100933
21:00+6e118094 0.0 101022